User: anonymous   Login
Location: *
(33.8649°S, 62.1526°E)
Time: 20:29:20
(UTC+00:00)
Language:

Cosmos 1656 Rocket - Orbit

View from above orbital plane
View from above orbital plane
View from above satellite
View from above satellite

Ground track
Ground track

The orbit data is extracted from the following two-line orbital elements,

1 15772U 85042D   21126.51490501  .00000061  00000-0  49485-4 0  9999
2 15772  71.1089 220.7576 0035680 352.7267  17.8859 14.21291125863107
Epoch (UTC): 06 May 2021 12:21:27
Eccentricity: 0.0035680
inclination: 71.1089°
perigee height: 795 km
apogee height: 846 km
right ascension of ascending node: 220.7576°
argument of perigee: 352.7267°
revolutions per day: 14.21291125
mean anomaly at epoch: 17.8859°
orbit number at epoch: 86310

The dashed part of the orbit path shows where the satellite is in the earth's shadow,  

DLR